Weather Roundup
Issued by NWS

Home | Current Version | Previous Version | Graphics & Text | Print | Product List | Glossary Off
Versions: 1 2 3 4 5 6 7 8 9 10 11 12 13 14 15 16 17 18 19 20 21 22 23 24 25 26 27 28 29 30 31 32 33 34 35 36 37 38 39 40 41 42 43 44 45 46 47 48 49 50

000
NZUS93 KARX 050659
HRRWXR

CURRENT HOURLY OBSERVATIONS ACROSS
MUCH OF THE UPPER MISSISSIPPI VALLEY
NATIONAL WEATHER SERVICE LA CROSSE WI
200 AM CDT THU MAY 05 2016


...SOUTHEAST MINNESOTA...


CITY           SKY/WX    TMP DP  RH WIND       PRES   REMARKS
ROCHESTER      CLEAR     46  23  40 E6        30.00S
ROCHESTER/MAYO FAIR      47  28  46 CALM      30.01R
WINONA         CLEAR     41  32  70 CALM      30.01S
AUSTIN         CLEAR     43  28  56 CALM      30.00S
ALBERT LEA     CLEAR     45  27  49 E3        30.00S
DODGE CENTER   CLEAR     39  25  56 E6        30.00F WCI  35
PRESTON        CLEAR     42  24  49 NE3       30.00S
OWATONNA       CLEAR     43  27  52 CALM      30.00S
FARIBAULT      NOT AVBL
$$

...ELSEWHERE IN MINNESOTA...


CITY           SKY/WX    TMP DP  RH WIND       PRES   REMARKS
MINNEAPOLIS    CLEAR     50  27  40 SE8       30.01R
INTNL FALLS    CLOUDY    45  36  70 SE3       29.94S
DULUTH         CLEAR     37  27  67 CALM      30.00S
RED WING       CLEAR     39  30  70 CALM      30.00S
REDWOOD FALLS  CLEAR     48  31  51 CALM      30.00S
MANKATO        CLEAR     46  27  46 CALM      30.00R
WORTHINGTON    CLEAR     46  35  65 NW5       30.03S
FAIRMONT       CLEAR     48  30  49 W3        30.00S
$$

...SOUTHWEST WISCONSIN...


CITY           SKY/WX    TMP DP  RH WIND       PRES   REMARKS
LA CROSSE      CLEAR     48  31  51 NE3       29.99S
PRAIRIE DU CHI CLEAR     41  31  68 CALM      29.98S
BOSCOBEL       CLEAR     39  33  79 NW3       29.98S
LONE ROCK      NOT AVBL
PLATTEVILLE    CLEAR     42  34  75 N6        29.96R
FORT MC COY    CLEAR     33  29  87 CALM      29.99F
MAUSTON-NEW LI SUNNY     37  32  82 NW3       29.98S
VIROQUA        FAIR      40  32  71 N6        29.98S
WIS DELLS      CLEAR     42  32  67 CALM      29.97R
$$

...ELSEWHERE IN WISCONSIN...


CITY           SKY/WX    TMP DP  RH WIND       PRES   REMARKS
MILWAUKEE      MOCLDY    42  33  70 N15G24    29.92S
MADISON        CLEAR     40  32  73 NE9       29.96R WCI  34
GREEN BAY      CLEAR     37  31  78 N9        29.97S WCI  30
EAU CLAIRE     NOT AVBL
BLACK RVR FLS  FAIR      31  28  86 CALM      29.99S
MEDFORD        CLEAR     35  30  84 N3        29.98S
WAUSAU         CLEAR     41  32  70 CALM      29.97R
WIS RAPIDS     CLEAR     38  30  73 N5        30.00R WCI  34
MARSHFIELD     CLEAR     42  31  64 N6        29.97S
RICE LAKE      CLEAR     37  33  86 CALM      30.02R
$$

...NORTHEAST IOWA...


CITY           SKY/WX    TMP DP  RH WIND       PRES   REMARKS
WATERLOO       CLEAR     43  30  60 CALM      29.98S
DUBUQUE        CLEAR     45  32  60 N12       29.96R
DECORAH        CLEAR     46  25  42 N3        29.98S
MASON CITY     CLEAR     39  28  64 NE6       30.01R WCI  35
CHARLES CITY   CLEAR     45  27  49 NE5       30.00R
OELWEIN        CLEAR     45  30  57 NE7       29.99R
$$

...ELSEWHERE IN IOWA...


CITY           SKY/WX    TMP DP  RH WIND       PRES   REMARKS
DES MOINES     CLEAR     48  37  65 NW5       29.99S
IOWA CITY      CLEAR     48  31  51 N7        29.97S
FORT DODGE     CLEAR     41  36  81 CALM      30.00S
MARSHALLTOWN   CLEAR     44  31  60 N7        29.98R
CEDAR RAPIDS   CLEAR     45  32  60 N6        29.96S
$$

...NORTHERN ILLINOIS...


CITY           SKY/WX    TMP DP  RH WIND       PRES   REMARKS
CHICAGO-OHARE  MOCLDY    43  33  68 N16       29.88S
CHICAGO-MIDWAY CLOUDY    44  32  62 N21G29    29.87S
MOLINE         CLEAR     50  35  56 NW3       29.93R
ROCKFORD       CLEAR     40  35  83 N8        29.94F WCI  34
PEORIA         CLEAR     45  38  76 NE9       29.91R
$$

NOTE: "FAIR" INDICATES FEW OR NO CLOUDS BELOW 12,000 FEET WITH NO
SIGNIFICANT WEATHER AND/OR OBSTRUCTIONS TO VISIBILITY. WIND
SPEEDS ARE IN MILES-PER-HOUR.




USA.gov is the U.S. government's official web portal to all federal, state and local government web resources and services.